EW5980 Weather Reports


Display with metric or nautical units.
time (UTC)temp
F
wind
direction
speed
MPH
gust
MPH
rain 1hr
in
rain 24hr
in
rain mn
in
humidity
%
barometer
mb
20260902040100 83 0.0 0.0 0.00 0.00 0.00 74 1017.4
20260902034557 83 0.0 0.0 0.00 0.00 0.00 74 1017.3
20260902033059 83 0.0 0.0 0.00 0.00 0.00 74 1017.2
20260902031611 84 0.0 0.0 0.00 0.00 0.00 72 1017.1
20260902030056 84 0.0 0.0 0.00 0.00 0.00 71 1017.0
20260902024607 85 0.0 0.0 0.00 0.00 0.00 70 1016.8
20260902023105 85 0.0 0.0 0.00 0.00 0.00 69 1016.8
20260902021610 86 0.0 0.0 0.00 0.00 0.00 68 1016.7
20260902020108 86 0.0 0.0 0.00 0.00 0.00 67 1016.4
20260902014549 86 0.0 0.0 0.00 0.00 0.00 65 1016.2
20260902013100 87 0.0 0.0 0.00 0.00 0.00 65 1016.0
20260902011557 88 0.0 0.0 0.00 0.00 0.00 63 1015.8
20260902010051 89 0.0 0.0 0.00 0.00 0.00 62 1015.6
20260902004554 90 0.0 0.0 0.00 0.00 0.00 60 1015.4
20260902003055 90 0.0 0.0 0.00 0.00 0.00 59 1015.3
20260902001557 91 0.0 0.0 0.00 0.00 0.00 57 1015.2
20260902000057 92 0.0 0.0 0.00 0.00 0.00 55 1015.3
20260901234555 92 0.0 0.0 0.00 0.00 0.00 54 1015.2
20260901233050 92 0.0 0.0 0.00 0.00 0.00 53 1015.3
20260901231601 93 0.0 0.0 0.00 0.00 0.00 53 1015.2
20260901230105 93 0.0 0.0 0.00 0.00 0.00 53 1015.4
20260901224552 93 0.0 0.0 0.00 0.00 0.00 52 1015.5
20260901223056 93 0.0 0.0 0.00 0.00 0.00 53 1015.4
20260901221558 93 0.0 0.0 0.00 0.00 0.00 52 1015.6
20260901220125 94 0.0 0.0 0.00 0.00 0.00 52 1015.5
20260901214552 94 0.0 0.0 0.00 0.00 0.00 51 1015.8
20260901213050 94 0.0 0.0 0.00 0.00 0.00 50 1015.8
20260901211556 94 0.0 0.0 0.00 0.00 0.00 49 1016.1
20260901210055 95 0.0 0.0 0.00 0.00 0.00 49 1016.3
20260901204549 95 0.0 0.0 0.00 0.00 0.00 49 1016.6
20260901203100 95 0.0 0.0 0.00 0.00 0.00 50 1016.7
20260901201559 95 0.0 0.0 0.00 0.00 0.00 50 1016.8
20260901200052 94 0.0 0.0 0.00 0.00 0.00 50 1017.1
20260901194555 95 0.0 0.0 0.00 0.00 0.00 48 1017.2
20260901193049 95 0.0 0.0 0.00 0.00 0.00 47 1017.2
20260901191611 96 0.0 0.0 0.00 0.00 0.00 48 1017.3
20260901190054 96 0.0 0.0 0.00 0.00 0.00 49 1017.5
20260901184610 96 0.0 0.0 0.00 0.00 0.00 49 1017.5
20260901183058 96 0.0 0.0 0.00 0.00 0.00 49 1017.7
20260901181600 96 0.0 0.0 0.00 0.00 0.00 48 1017.8
20260901180057 95 0.0 0.0 0.00 0.00 0.00 51 1018.0
20260901174555 94 0.0 0.0 0.00 0.00 0.00 53 1017.9
20260901173052 94 0.0 0.0 0.00 0.00 0.00 54 1018.1
20260901171547 94 0.0 0.0 0.00 0.00 0.00 53 1018.4
20260901170056 94 0.0 0.0 0.00 0.00 0.00 54 1018.6
20260901164554 95 0.0 0.0 0.00 0.00 0.00 53 1018.7
20260901163048 95 0.0 0.0 0.00 0.00 0.00 54 1018.9
20260901161612 94 0.0 0.0 0.00 0.00 0.00 56 1019.0
20260901160114 93 0.0 0.0 0.00 0.00 0.00 58 1019.0
20260901154556 93 0.0 0.0 0.00 0.00 0.00 61 1019.1
20260901153110 92 0.0 0.0 0.00 0.00 0.00 63 1019.0
20260901151605 91 0.0 0.0 0.00 0.00 0.00 63 1019.2
20260901150058 90 0.0 0.0 0.00 0.00 0.00 65 1019.3
20260901144555 90 0.0 0.0 0.00 0.00 0.00 65 1019.2
20260901143126 89 0.0 0.0 0.00 0.00 0.00 69 1019.2
20260901141557 88 0.0 0.0 0.00 0.00 0.00 72 1019.2
20260901140100 86 0.0 0.0 0.00 0.00 0.00 76 1019.4
20260901134558 83 0.0 0.0 0.00 0.00 0.00 78 1019.2
20260901133056 83 0.0 0.0 0.00 0.00 0.00 78 1019.3
20260901131554 82 0.0 0.0 0.00 0.00 0.00 78 1019.1
20260901130058 81 0.0 0.0 0.00 0.00 0.00 77 1019.0
20260901124554 79 0.0 0.0 0.00 0.00 0.00 69 1019.0
20260901123111 78 0.0 0.0 0.00 0.00 0.00 64 1018.8
20260901121556 77 0.0 0.0 0.00 0.00 0.00 63 1018.8
20260901120104 77 0.0 0.0 0.00 0.00 0.00 62 1018.6
20260901114606 77 0.0 0.0 0.00 0.00 0.00 61 1018.5
20260901113102 77 0.0 0.0 0.00 0.00 0.00 62 1018.4
20260901111606 77 0.0 0.0 0.00 0.00 0.00 66 1018.3
20260901110051 77 0.0 0.0 0.00 0.00 0.00 67 1018.1
20260901104558 77 0.0 0.0 0.00 0.00 0.00 67 1018.1
20260901103057 77 0.0 0.0 0.00 0.00 0.00 68 1018.0
20260901101553 77 0.0 0.0 0.00 0.00 0.00 69 1017.9
20260901100056 78 0.0 0.0 0.00 0.00 0.00 70 1017.9
20260901094555 78 0.0 0.0 0.00 0.00 0.00 71 1017.6
20260901093107 78 0.0 0.0 0.00 0.00 0.00 72 1017.5
20260901091559 78 0.0 0.0 0.00 0.00 0.00 72 1017.5
20260901090056 78 0.0 0.0 0.00 0.00 0.00 73 1017.4
20260901084554 78 0.0 0.0 0.00 0.00 0.00 74 1017.5
20260901083049 78 0.0 0.0 0.00 0.00 0.00 75 1017.4
20260901081557 78 0.0 0.0 0.00 0.00 0.00 76 1017.4
20260901080053 78 0.0 0.0 0.00 0.00 0.00 77 1017.3
20260901074552 79 0.0 0.0 0.00 0.00 0.00 78 1017.2
20260901073102 79 0.0 0.0 0.00 0.00 0.00 78 1017.2
20260901071552 79 0.0 0.0 0.00 0.00 0.00 78 1017.0
20260901070050 79 0.0 0.0 0.00 0.00 0.00 78 1017.2
20260901064557 79 0.0 0.0 0.00 0.00 0.00 78 1017.2
20260901063106 80 0.0 0.0 0.00 0.00 0.00 78 1017.5
20260901061606 80 0.0 0.0 0.00 0.00 0.00 78 1017.5
20260901060057 80 0.0 0.0 0.00 0.00 0.00 77 1017.4
20260901054553 80 0.0 0.0 0.00 0.00 0.00 76 1017.4
20260901053107 81 0.0 0.0 0.00 0.00 0.00 76 1017.3
20260901051550 81 0.0 0.0 0.00 0.00 0.00 75 1017.5
20260901050058 82 0.0 0.0 0.00 0.00 0.00 74 1017.4
20260901044600 82 0.0 0.0 0.00 0.00 0.00 74 1017.3
20260901043059 83 0.0 0.0 0.00 0.00 0.00 73 1017.1
20260901041553 83 0.0 0.0 0.00 0.00 0.00 72 1017.0